Regional Weather Roundup
Issued by NWS San Diego, CA

Home | Current Version | Previous Version | Text Only | Print | Product List | Glossary On
Versions: 1 2 3 4 5 6 7 8 9 10 11 12 13 14 15 16 17 18 19 20 21 22 23 24 25 26 27 28 29 30 31 32 33 34 35 36 37 38 39 40 41 42 43 44 45 46 47 48 49 50
000
ASUS46 KSGX 220310
RWRSGX

SAN DIEGO HOURLY WEATHER ROUNDUP
NATIONAL WEATHER SERVICE SAN DIEGO CA
800 PM PDT TUE OCT 21 2014

NOTE: "FAIR" INDICATES FEW OR NO CLOUDS BELOW 12,000 FEET WITH NO
SIGNIFICANT WEATHER AND/OR OBSTRUCTIONS TO VISIBILITY.

CAZ042-043-060-061-PZZ750-775-220400-

GREATER SAN DIEGO AREA

CITY           SKY/WX    TMP DP  RH WIND       PRES   REMARKS
LINDBERGH FLD  MOCLDY    70  61  73 VRB3      29.88R
POINT LOMA       N/A     67  62  83 NW9         N/A
NATIONAL CITY    N/A     69  63  82 N3        29.87R
CHULA VISTA      N/A     68  64  86 NW1       29.80R
IMPERIAL BEACH MOCLDY    69  63  81 NW7       29.87R
BROWN FIELD    PTCLDY    66  61  84 NW5       29.87R
MIRAMAR MCAS   MOCLDY    66  60  81 NW6       29.87S
MONTGOMERY FLD PTCLDY    67  61  81 N7        29.87S

$$

NORTH SAN DIEGO COUNTY

CITY           SKY/WX    TMP DP  RH WIND       PRES   REMARKS
CAMP PENDLETON PTCLDY    67  60  78 VRB3      29.85R
OCEANSIDE AP   CLEAR     66  62  87 CALM      29.85R
OCEANSIDE HBR    N/A     69  66  88 W3        29.88R
VISTA            N/A     66  61  85 CALM      29.84S
CARLSBAD       CLEAR     68  62  81 CALM      29.86R
DEL MAR          N/A     66  63  89 CALM      29.89R
LA JOLLA SCRIP   N/A     67  64  88 CALM      29.84S
FALLBROOK        N/A     64  64 100 CALM      29.87R
ESCONDIDO        N/A     66  62  85 CALM      29.89S
SAN MARCOS       N/A     66  61  85 CALM      29.85R
POWAY            N/A     65  60  84 CALM      29.87S

$$

EAST SAN DIEGO COUNTY

CITY           SKY/WX    TMP DP  RH WIND       PRES   REMARKS
RAMONA         CLEAR     61  56  83 W3        29.89S
SANTEE LAKES     N/A     65  61  87 CALM      29.87S
LA MESA          N/A     66  63  87 N3        29.81R
JAMUL            N/A     65  60  84 CALM      29.86R
DESCANSO N       N/A     57  48  73 CALM      29.76S
MT. LAGUNA OBS   N/A     56  35  44 CALM      29.66R
CAMPO            N/A     60  52  74 NE3       29.90R

$$

ORANGE COUNTY AND THE LOS ANGELES BASIN

CITY           SKY/WX    TMP DP  RH WIND       PRES   REMARKS
JOHN WAYNE AP  PTCLDY    72  62  71 CALM      29.85R
LAKE FOREST FR   N/A     65  56  72 CALM      29.78R
SANTA ANA        N/A     69  61  76 CALM      29.81R
HUNTINGTON BCH   N/A     67  65  91 CALM      29.88R
LOS ALAMITOS   CLEAR     67  60  78 W5        29.86R
FULLERTON      CLEAR     71  59  65 CALM      29.85R
LONG BEACH     CLEAR     69  63  81 NW5       29.85R
L.A. AP        CLEAR     67  64  90 W7        29.86R
L.A. DOWNTOWN  CLEAR     69  61  75 CALM      29.85R

$$

THE INLAND EMPIRE

CITY           SKY/WX    TMP DP  RH WIND       PRES   REMARKS
CORONA         CLEAR     69  59  70 CALM      29.87R
CHINO          CLEAR     67  55  65 W7        29.88R
ONTARIO        PTCLDY    70  56  61 W8        29.87R
SAN BERNARDINO PTCLDY    68  55  64 SW6       29.88R
RIVERSIDE AP   CLEAR     70  58  65 W5        29.87R
RIV CYN CREST    N/A     70  65  83 CALM      29.85R
MORENO VALLEY    N/A     69  61  75 W3        29.06R
MARCH ARB      CLEAR     66  56  70 NW6       29.89R
HORSETHIEF CYN   N/A     65  51  62 SW3       29.89R
PERRIS           N/A     69  58  66 N3        29.85S
MENIFEE          N/A     71  57  60 CALM      29.93R
HEMET EAST       N/A     69  41  35 CALM      29.87R
FRENCH VALLEY  FAIR      66  57  72 SE3       29.89R
TEMECULA         N/A     68  60  75 SE2       29.85R

$$

SAN BERNARDINO AND RIVERSIDE COUNTY MOUNTAINS

CITY           SKY/WX    TMP DP  RH WIND       PRES   REMARKS
BIG BEAR AP    CLEAR     43  10  26 CALM      30.12R
PINE COVE        N/A     55  12  18 CALM      29.79R

$$

SOUTHERN DESERT INCLUDING THE COACHELLA VALLEY

CITY           SKY/WX    TMP DP  RH WIND       PRES   REMARKS
PALM SPRINGS   CLEAR     85  44  23 NW13      29.78R
THOUSAND PALMS   N/A     83  45  25 NW10      29.72R
PALM DESERT      N/A     82  46  28 CALM      31.93S
THERMAL        CLEAR     76  53  44 NW3       29.72R
BLYTHE         CLEAR     84  49  29 CALM      29.75R
IMPERIAL AP    PTCLDY    84  49  29 CALM      29.72R
EL CENTRO NAS  PTCLDY    80  47  31 VRB3      29.73R
YUMA AZ        PTCLDY    86  50  28 CALM      29.75R
MEXICALI         N/A    N/A N/A N/A MISG        N/A

$$

UPPER DESERT

CITY           SKY/WX    TMP DP  RH WIND       PRES   REMARKS
VICTORVILLE AP CLEAR     64  36  34 SW7       29.94R
HESPERIA         N/A     65  43  43 NW1       29.97R
APPLE VALLEY     N/A     67  33  28 CALM      30.01R
PALMDALE       CLEAR     67  28  23 NW16      29.93R
LANCASTER      CLEAR     61  42  49 W23       29.92R
EDWARDS AFB    MOCLDY    64  38  39 SW7       29.89R
DAGGETT        PTCLDY    72  30  21 W8        29.87R
29 PALMS N     CLEAR     74  30  19 W6        29.92R
NEEDLES        CLEAR     83  37  19 W10       29.79R

$$

REGIONAL REPORTS

CITY           SKY/WX    TMP DP  RH WIND       PRES   REMARKS
SANTA BARBARA  CLEAR     65  58  78 CALM      29.83R
SANDBERG       CLEAR     51  41  68 N17G31    30.04R
MT. WILSON       N/A     57  18  21 MISG        N/A
LAS VEGAS NV   PTCLDY    77  24  14 SW15      29.80R
PHOENIX AZ     PTCLDY    81  54  39 CALM      29.80R
TIJUANA        CLEAR     66  59  77 W7        29.90R

$$

OFFSHORE ISLANDS

CITY           SKY/WX    TMP DP  RH WIND       PRES   REMARKS
CATALINA ARPT  CLEAR     60  57  89 SW6       29.90R
SAN CLEMENTE I PTCLDY    68  63  83 W12       29.88R
SAN NICOLAS IS CLEAR    N/A N/A N/A NW20      29.87S

$$

MARINE AND OFFSHORE BUOY REPORTS

STATION/POSITION SKY/WX   TEMP    WIND        PRES    SWELL
                          AIR SEA DIR/SP/G            HT/PER/DIR
                          (F)     (DEG/KT/KT) (MB)    (FT/S/D)
TANNER BANKS               67 69  320/ 19/ 23 1011.8R  11/300/16
S CLEMENTE BASIN           69 71  300/ 10/ 14 1010.9R  10/300/15
SAN NICOLAS IS.               69                N/A    10/300/15
SO. S. ROSA ISLA           65 67  320/ 27/ 31 1010.4F  10/15
W. S. BARBARA CH           64 64  330/ 23/ 29 1011.1R  11/320/15
S. MONICA BASIN            68 69  270/  2/  4 1010.2R   7/240/15
S PEDRO CHANNEL               71                N/A     5/270/15
DANA POINT                    70                N/A     3/280/14
CMP PENDLETON NS              71                N/A     2/240/13
OCEANSIDE OFFSHR              72                N/A     3/250/14
TORREY PINES OTR              72                N/A     5/270/15
LA JOLLA 1                 69 71  340/  5/  6 1011.4R
MISSION BAY BUOY              72                N/A     5/270/17
SAN DIEGO BAY                 74              1011.9F
POINT LOMA SOUTH              72                N/A     5/280/15

$$




USA.gov is the U.S. government's official web portal to all federal, state and local government web resources and services.